Fort Leonard Wood, MO

11:27 PM CDT on May 28, 2017 (GMT -0500)
Waynesville Regional At Forney Field

Weather History for KTBN - February, 2014

Change the Weather History Date:

Sunday, February 2, 2014

  Actual Average Record
Temperature  
Mean Temperature 19 °F -  
Max Temperature 25 °F 42 °F 73 °F (2003)
Min Temperature 12 °F 27 °F 5 °F (2001)
Degree Days  
Heating Degree Days 46    
Moisture  
Dew Point 21 °F    
Average Humidity 98    
Maximum Humidity 100    
Minimum Humidity 87    
Precipitation  
Precipitation 0.00 in - - ()
Sea Level Pressure  
Sea Level Pressure 30.25 in    
Wind  
Wind Speed 10 mph (North)    
Max Wind Speed 14 mph    
Max Gust Speed 17 mph    
Visibility 10 miles    
Events      
Averages and records for this station are not official NWS values.
T = Trace of Precipitation, MM = Missing Value Source: NWS Daily Summary

Daily Weather History Graph

Daily Weather History Graph

Search for Another Location

Airport or City:

Trip Planner

Search our weather history database for the weather conditions in past years. The results will help you decide how hot, cold, wet, or windy it might be!

Date:

Astronomy

Feb. 02, 2014 Rise Set
Actual Time 7:11 AM CST 5:33 PM CST
Civil Twilight 6:44 AM CST 6:01 PM CST
Nautical Twilight 6:12 AM CST 6:32 PM CST
Astronomical Twilight 5:41 AM CST 7:03 PM CST
Moon 8:42 AM CST (2/2) 9:12 PM CST (2/2)
Length of Visible Light 11h 16m
Length of Day
10h 21m
Waxing Crescent, 11% of the Moon is Illuminated
Feb 2
Waxing Crescent
Feb 6
First Quarter
Feb 14
Full
Feb 22
Last Quarter
Mar 1
New

Hourly Weather History & Observations

Time (CST) Temp. Windchill Dew Point Humidity Pressure Visibility Wind Dir Wind Speed Gust Speed Precip Events Conditions
12:58 AM 25.3 °F 16.7 °F 25.3 °F 100% 30.16 in 9.0 mi North 8.1 mph - 0.00 in   Overcast
1:02 AM 24.8 °F 14.6 °F 24.8 °F 100% 30.11 in 9.0 mi NNW 10.4 mph - N/A   Overcast
1:17 AM 24.8 °F 15.3 °F 24.8 °F 100% 30.12 in 10.0 mi NNW 9.2 mph - N/A   Overcast
1:58 AM 25.2 °F 15.1 °F 25.2 °F 100% 30.18 in 10.0 mi NNW 10.4 mph - 0.00 in   Overcast
2:58 AM 24.6 °F 14.4 °F 24.6 °F 100% 30.20 in 10.0 mi North 10.4 mph - N/A   Overcast
3:48 AM 24.8 °F 16.1 °F 24.8 °F 100% 30.16 in 10.0 mi North 8.1 mph - N/A   Overcast
3:58 AM 23.9 °F 12.3 °F 23.9 °F 100% 30.20 in 10.0 mi North 12.7 mph 17.3 mph N/A   Overcast
4:03 AM 23.0 °F 12.4 °F 23.0 °F 100% 30.15 in 10.0 mi North 10.4 mph - N/A   Overcast
4:58 AM 23.4 °F 12.8 °F 23.4 °F 100% 30.24 in 10.0 mi North 10.4 mph - N/A   Overcast
5:08 AM 23.0 °F 11.7 °F 23.0 °F 100% 30.18 in 10.0 mi North 11.5 mph - N/A   Overcast
5:18 AM 23.0 °F 13.1 °F 23.0 °F 100% 30.17 in 10.0 mi North 9.2 mph - N/A   Overcast
5:23 AM 23.0 °F 13.9 °F 23.0 °F 100% 30.17 in 10.0 mi NNE 8.1 mph - N/A   Overcast
5:58 AM 23.2 °F 14.1 °F 23.2 °F 100% 30.24 in 10.0 mi North 8.1 mph - N/A   Overcast
6:58 AM 22.5 °F 11.1 °F 22.5 °F 100% 30.27 in 10.0 mi NNW 11.5 mph - N/A   Overcast
7:03 AM 21.2 °F 10.9 °F 21.2 °F 100% 30.23 in 10.0 mi NNW 9.2 mph - N/A   Overcast
7:58 AM 21.2 °F 10.1 °F 21.2 °F 100% 30.33 in 10.0 mi North 10.4 mph - N/A   Overcast
8:58 AM 20.8 °F 9.7 °F 20.8 °F 100% 30.29 in 10.0 mi North 10.4 mph - N/A   Overcast
9:33 AM 19.4 °F 6.0 °F 19.4 °F 100% 30.26 in 10.0 mi North 13.8 mph - N/A   Scattered Clouds
9:58 AM 20.3 °F 7.7 °F 20.3 °F 100% 30.33 in 10.0 mi NNW 12.7 mph - N/A   Overcast
10:58 AM 20.3 °F 9.8 °F 20.1 °F 99% 30.30 in 10.0 mi North 9.2 mph - N/A   Mostly Cloudy
11:58 AM 20.5 °F 12.8 °F 20.3 °F 99% 30.35 in 10.0 mi NNW 5.8 mph - N/A   Mostly Cloudy
12:58 PM 20.8 °F 11.2 °F 20.1 °F 97% 30.29 in 10.0 mi North 8.1 mph - N/A   Partly Cloudy
1:58 PM 20.3 °F 8.3 °F 19.6 °F 97% 30.30 in 10.0 mi NNW 11.5 mph - N/A   Mostly Cloudy
2:58 PM 20.8 °F 10.4 °F 18.0 °F 89% 30.30 in 10.0 mi NNW 9.2 mph - N/A   Clear
3:58 PM 21.2 °F 11.7 °F 18.0 °F 87% 30.30 in 10.0 mi NNW 8.1 mph - N/A   Mostly Cloudy
4:58 PM 20.7 °F 7.6 °F 17.4 °F 87% 30.27 in 10.0 mi NNW 13.8 mph - N/A   Overcast
5:58 PM 19.8 °F 11.9 °F 18.7 °F 96% 30.30 in 10.0 mi North 5.8 mph - N/A   Overcast
6:58 PM 18.9 °F 8.0 °F 18.7 °F 99% 30.31 in 10.0 mi NNW 9.2 mph - N/A   Mostly Cloudy
7:58 PM 18.1 °F 7.1 °F 18.1 °F 100% 30.30 in 10.0 mi North 9.2 mph - N/A   Mostly Cloudy
8:58 PM 17.4 °F 4.7 °F 17.2 °F 99% 30.30 in 10.0 mi North 11.5 mph - N/A   Mostly Cloudy
9:58 PM 15.3 °F 4.4 °F 15.1 °F 99% 30.33 in 10.0 mi North 8.1 mph - N/A   Partly Cloudy
10:58 PM 13.6 °F 6.0 °F 13.3 °F 98% 30.34 in 10.0 mi North 4.6 mph - N/A   Clear
11:58 PM 12.0 °F 2.7 °F 12.0 °F 100% 30.33 in 10.0 mi North 5.8 mph - N/A   Clear